Location: Unspecified
(0.0000°N, 0.0000°E)
Time: 19:16:47
(UTC+00:00)

Vanguard 2 - Pass Details

Date: 17 December 2017
Orbit: 553 x 2939 km, 32.9° (Epoch: 17 June)

Event Time Altitude Azimuth Distance (km) Brightness Sun altitude
Rises 04:59:05 0° 219° (SW) 5,594 11.8 -13.1°
Reaches altitude 10° 05:05:23 10° 197° (SSW) 5,066 11.8 -11.6°
Maximum altitude 05:13:04 15° 166° (SSE) 5,055 12.2 -9.9°
Drops below altitude 10° 05:21:36 10° 136° (SE) 5,736 13.2 -7.9°
Sets 05:29:42 0° 116° (ESE) 6,774 15.2 -6.1°
